[[{"header":{"parameterUnit":"m.s-1","parameterCategory":2,"la1":30.2991,"la2":30.254,"lo1":-89.0895,"lo2":-89.0444,"dy":0.0017,"dx":0.0017,"nx":28,"ny":28,"refTime":"2024-05-24T03:00:00:Z","depth":"0","parameterNumber":2,"parameterNumberName":"U-component_of_CURRENTS"},"data":[0,0,0,0,0,0,0,0,0,0,0,0,0,0,0,0,0,0,0,0,0,0,0,0,0,0,0,0,0,0,0,0,0,0,0,0,0,0,0,0,0,0,0,0,0,0,0,0,0,0,0,0,0,0,0,0,0,0,0.1614,0.1614,0,0.1648,0.1648,0.1648,0.1651,0.1651,0.1651,0.165,0.1646,0.1646,0.1646,0,0,0,0,0,0,0,0,0,0,0,0,0,0.1541,0.1542,0.1614,0.1614,0.1615,0.1648,0.1648,0.1648,0.1651,0.1651,0.1651,0.165,0.1646,0.1646,0.1646,0,0,0,0,0,0,0,0,0,0,0,0,0,0.1572,0.1542,0.1614,0.1622,0.1623,0.1648,0.1648,0.1648,0.1651,0.1651,0.165,0.165,0.1646,0.1646,0.1646,0.1652,0,0,0.1646,0.1646,0,0,0,0,0,0,0,0,0.157,0.1574,0.162,0.1621,0.1623,0.1647,0.1621,0.1648,0.1651,0.1638,0.165,0.165,0.1644,0.1644,0.1649,0.1652,0.1652,0.1646,0.1646,0.1646,0.1646,0,0,0,0,0,0,0,0.1568,0.1573,0.1625,0.1621,0.1622,0.162,0.1624,0.1626,0.164,0.1639,0.164,0.1647,0.1644,0.1649,0.1649,0.1651,0.1646,0.1646,0.1646,0.1646,0.1655,0.1655,0,0,0,0,0,0,0.1569,0.1571,0.1624,0.1626,0.1597,0.1622,0.1626,0.1638,0.1641,0.1642,0.1647,0.1647,0.1649,0.1649,0.1649,0.1658,0.1646,0.1646,0.1646,0.1654,0.1655,0.1655,0,0,0,0,0,0,0.1567,0.1573,0.1623,0.16,0.1607,0.1624,0.1636,0.1638,0.1647,0.1648,0.1648,0.1655,0.1649,0.1648,0.1653,0.1657,0.1646,0.1646,0.1654,0.1654,0.1655,0.1675,0,0,0,0,0,0,0.1565,0.1573,0.1581,0.1601,0.1608,0.1644,0.1637,0.1639,0.1653,0.1653,0.1654,0.1653,0.1648,0.1653,0.1654,0.1657,0.1646,0.1654,0.1654,0.1655,0.1674,0.1676,0.1677,0,0,0,0,0,0.1562,0.1578,0.1581,0.1588,0.162,0.1644,0.1648,0.1657,0.1653,0.1662,0.166,0.1653,0.1655,0.1654,0.1654,0.1658,0.1654,0.1654,0.1655,0.1673,0.1675,0.1677,0,0,0,0,0,0,0.1549,0.158,0.1584,0.1608,0.1627,0.1646,0.1657,0.1661,0.1667,0.1665,0.1659,0.1658,0.1664,0.1658,0.1657,0.166,0.1652,0.1653,0.1666,0.1668,0.167,0.1679,0.1646,0,0,0,0,0,0.1551,0.1572,0.1596,0.1615,0.1626,0.1641,0.1652,0.1659,0.1668,0.1671,0.167,0.1667,0.1666,0.1665,0.1666,0.1669,0.1749,0.167,0.1672,0.1673,0.1681,0.1818,0.1835,0.1656,0.1656,0.1656,0,0,0.1551,0.1572,0.1583,0.1614,0.1629,0.1645,0.1647,0.1669,0.1675,0.1669,0.1675,0.1676,0.1669,0.1674,0.1675,0.1669,0.1772,0.1674,0.1675,0.1682,0.1821,0.1839,0.1855,0.1656,0.1656,0.1656,0,0,0.1563,0.1581,0.1602,0.1618,0.1646,0.1654,0.1661,0.1682,0.1684,0.1695,0.1689,0.1691,0.1693,0.1687,0.1684,0.1695,0.1779,0.1695,0.1709,0.1843,0.186,0.1875,0.2035,0.2065,0.1693,0.1693,0.1693,0,0.156,0.1589,0.1611,0.1632,0.164,0.1657,0.167,0.168,0.1697,0.1705,0.1699,0.172,0.1697,0.1714,0.1704,0.1698,0.1813,0.1702,0.185,0.1866,0.1882,0.2042,0.2075,0.1694,0.1694,0.1693,0.1693,0,0.1588,0.1606,0.162,0.1648,0.1659,0.1677,0.169,0.1704,0.1707,0.172,0.1746,0.1739,0.1766,0.174,0.1717,0.18,0.1861,0.1844,0.1853,0.1903,0.2067,0.21,0.1695,0.1695,0.1694,0.1694,0,0,0.159,0.163,0.1634,0.1643,0.1666,0.1681,0.1693,0.1714,0.1752,0.1755,0.182,0.1773,0.1806,0.1804,0.1796,0.1865,0.2055,0.19,0.1907,0.2074,0.2412,0.242,0.2459,0.2094,0.2099,0.2103,0.2496,0,0.1602,0.1632,0.1649,0.1669,0.168,0.1695,0.1712,0.1733,0.1769,0.1842,0.1843,0.1906,0.1826,0.1873,0.1927,0.2042,0.2141,0.1953,0.2324,0.2336,0.235,0.2495,0.244,0.2783,0.2529,0.2535,0.2539,0,0.1619,0.1637,0.1653,0.1681,0.169,0.1705,0.1753,0.1781,0.1868,0.1913,0.198,0.2029,0.2125,0.2064,0.2299,0.2206,0.2309,0.2377,0.2395,0.2415,0.2405,0.2684,0.2855,0.2733,0.2592,0.2588,0.2584,0,0.1601,0.1637,0.1646,0.1654,0.1691,0.1705,0.1733,0.1799,0.1867,0.2004,0.2116,0.2213,0.2349,0.2464,0.2582,0.2497,0.2878,0.2788,0.2891,0.2895,0.2922,0.2919,0.3026,0.297,0.2969,0.2968,0.2967,0,0.1599,0.1606,0.1645,0.1649,0.1689,0.1711,0.179,0.1838,0.1977,0.2112,0.2182,0.2345,0.2466,0.2673,0.2722,0.2954,0.302,0.2949,0.3009,0.2927,0.292,0.2869,0.278,0.2983,0.298,0.2977,0.2974,0,0.1584,0.1594,0.1622,0.1665,0.1682,0.1721,0.1839,0.1934,0.2049,0.2257,0.2332,0.2552,0.2827,0.2945,0.3196,0.3188,0.3281,0.3403,0.3307,0.3345,0.325,0.3164,0.325,0.3158,0.3605,0.3608,0.361,0,0.1588,0.1602,0.1647,0.1689,0.1714,0.1784,0.1862,0.1963,0.2095,0.238,0.2516,0.2825,0.3025,0.3406,0.349,0.3671,0.3456,0.3684,0.3446,0.329,0.3241,0.3031,0.2928,0.3529,0.3531,0.3532,0.3533,0,0.1648,0.1659,0.1702,0.177,0.1842,0.1911,0.2032,0.2125,0.2298,0.2477,0.2759,0.2933,0.3304,0.3477,0.3694,0.3755,0.3494,0.371,0.3593,0.3238,0.298,0.2904,0.3235,0.3543,0.3542,0.3542,0.3541,0.3541,0.1743,0.178,0.1853,0.1899,0.1971,0.204,0.2093,0.2249,0.2426,0.2659,0.2856,0.3075,0.336,0.3656,0.3695,0.3706,0.36,0.3594,0.3535,0.3359,0.3146,0.3497,0.3812,0.3812,0.3813,0.3813,0.3813,0,0.1887,0.1915,0.1989,0.2041,0.2097,0.2106,0.2224,0.227,0.2435,0.2664,0.2865,0.3152,0.3336,0.3485,0.3635,0.3543,0.3325,0.3442,0.3122,0.305,0.3455,0.3318,0.3483,0.3483,0.3483,0.3483,0.3483,0.3483,0.1989,0.2069,0.2059,0.215,0.217,0.2223,0.2253,0.2317,0.2435,0.2627,0.2776,0.2946,0.3215,0.3436,0.3415,0.3335,0.3026,0.2957,0.2862,0.3121,0.3126,0.3132,0.298,0.3072,0.3071,0.235,0.2345,0.2341]},{"header":{"parameterUnit":"m.s-1","parameterCategory":2,"la1":30.2991,"la2":30.254,"lo1":-89.0895,"lo2":-89.0444,"dy":0.0017,"dx":0.0017,"nx":28,"ny":28,"refTime":"2024-05-24T03:00:00:Z","depth":"0","parameterNumber":3,"parameterNumberName":"V-component_of_CURRENTS"},"data":[0,0,0,0,0,0,0,0,0,0,0,0,0,0,0,0,0,0,0,0,0,0,0,0,0,0,0,0,0,0,0,0,0,0,0,0,0,0,0,0,0,0,0,0,0,0,0,0,0,0,0,0,0,0,0,0,0,0,-0.0009,-0.001,0,-0.008,-0.0081,-0.0082,-0.0106,-0.0106,-0.0106,-0.0105,-0.0186,-0.0189,-0.0191,0,0,0,0,0,0,0,0,0,0,0,0,0,0.0071,0.007,-0.0009,-0.001,-0.0011,-0.008,-0.0081,-0.0082,-0.0106,-0.0106,-0.0106,-0.0105,-0.0186,-0.0188,-0.0191,0,0,0,0,0,0,0,0,0,0,0,0,0,0.0022,0.007,-0.0009,-0.0031,-0.0034,-0.008,-0.0081,-0.0082,-0.0106,-0.0106,-0.0105,-0.0105,-0.0185,-0.0188,-0.0192,-0.0224,0,0,-0.0203,-0.0205,0,0,0,0,0,0,0,0,0.0025,0.0019,-0.0027,-0.003,-0.0033,-0.0084,-0.0082,-0.013,-0.0107,-0.0079,-0.0105,-0.0105,-0.0153,-0.0159,-0.0174,-0.0227,-0.0231,-0.0203,-0.0206,-0.0207,-0.0208,0,0,0,0,0,0,0,0.0028,0.0021,-0.0038,-0.0028,-0.0031,-0.0049,-0.0055,-0.0092,-0.0118,-0.0081,-0.0083,-0.0091,-0.0155,-0.017,-0.0176,-0.0232,-0.0203,-0.0207,-0.0209,-0.021,-0.0318,-0.0318,0,0,0,0,0,0,0.0038,0.0025,-0.0035,-0.004,-0.0002,-0.0051,-0.0058,-0.0068,-0.0118,-0.0125,-0.0091,-0.0092,-0.0164,-0.0172,-0.0179,-0.0223,-0.0207,-0.0211,-0.0213,-0.0317,-0.0318,-0.0319,0,0,0,0,0,0,0.004,0.0034,-0.0032,-0.0009,-0.0018,-0.0052,-0.0064,-0.007,-0.0085,-0.0125,-0.0132,-0.0101,-0.0164,-0.0174,-0.0217,-0.0226,-0.0212,-0.0216,-0.0316,-0.0317,-0.0318,-0.0309,0,0,0,0,0,0,0.0043,0.0035,0.0029,-0.0008,-0.0019,-0.0062,-0.0064,-0.0071,-0.0091,-0.0092,-0.0136,-0.0143,-0.0165,-0.0211,-0.022,-0.0231,-0.0218,-0.0315,-0.0317,-0.0318,-0.0308,-0.0309,-0.031,0,0,0,0,0,0.0046,0.0033,0.0029,0.0021,-0.0025,-0.0062,-0.007,-0.0093,-0.0091,-0.0104,-0.0133,-0.0141,-0.0225,-0.0215,-0.0226,-0.0237,-0.0315,-0.0316,-0.0318,-0.0308,-0.0309,-0.031,0,0,0,0,0,0,0.0061,0.0028,0.0023,-0.0,-0.0028,-0.0066,-0.0082,-0.0093,-0.0126,-0.0127,-0.0157,-0.0167,-0.0206,-0.0225,-0.0213,-0.0271,-0.0269,-0.0272,-0.0257,-0.0259,-0.026,-0.0224,-0.0221,0,0,0,0,0,0.0063,0.0045,0.0014,-0.0006,-0.0018,-0.0048,-0.0065,-0.008,-0.0113,-0.0126,-0.0156,-0.0188,-0.0222,-0.0242,-0.0275,-0.0312,-0.0278,-0.0325,-0.0326,-0.0326,-0.0305,-0.0256,-0.025,-0.0323,-0.0323,-0.0323,0,0,0.0064,0.0043,0.0033,-0.0003,-0.0026,-0.005,-0.0058,-0.0086,-0.0104,-0.0131,-0.0167,-0.0196,-0.0233,-0.0272,-0.0291,-0.0289,-0.029,-0.0328,-0.0328,-0.0306,-0.0257,-0.0249,-0.0242,-0.0324,-0.0324,-0.0324,0,0,0.0053,0.0038,0.0021,-0.0,-0.0033,-0.0054,-0.0059,-0.0098,-0.0112,-0.0151,-0.0172,-0.02,-0.0259,-0.0281,-0.0301,-0.0327,-0.0296,-0.0343,-0.0321,-0.0275,-0.0267,-0.026,-0.0209,-0.0197,-0.0343,-0.0343,-0.0343,0,0.0056,0.0033,0.0009,-0.0011,-0.0024,-0.0053,-0.0069,-0.0096,-0.0142,-0.0139,-0.016,-0.0208,-0.0258,-0.0277,-0.0299,-0.0327,-0.0287,-0.0314,-0.0272,-0.0264,-0.0257,-0.0206,-0.0193,-0.0343,-0.0343,-0.0343,-0.0343,0,0.0035,0.0019,0.0006,-0.0025,-0.0044,-0.0065,-0.0096,-0.0112,-0.0129,-0.014,-0.0155,-0.0209,-0.0216,-0.0259,-0.0298,-0.028,-0.0263,-0.0276,-0.026,-0.0248,-0.0197,-0.0183,-0.0343,-0.0343,-0.0343,-0.0343,0,0,0.004,0.0,-0.0002,-0.0001,-0.0048,-0.0056,-0.0087,-0.01,-0.0059,-0.0126,-0.0069,-0.0181,-0.0167,-0.0187,-0.0227,-0.0222,-0.0169,-0.0231,-0.0228,-0.0164,-0.0045,-0.0076,-0.0064,-0.0163,-0.0161,-0.0159,-0.0029,0,0.0034,0.0012,-0.0014,-0.0024,-0.0031,-0.0054,-0.0054,-0.0065,-0.0058,-0.0008,-0.0059,-0.0022,-0.015,-0.0114,-0.0143,-0.013,-0.0133,-0.0202,-0.008,-0.0076,-0.0091,-0.005,-0.0072,0.0038,-0.0016,-0.0014,-0.0012,0,0.0025,0.0017,0.0009,0.002,0.002,0.0018,0.0063,0.0064,0.0108,0.0131,0.0142,0.0143,0.0138,0.0051,0.0047,0.0019,-0.0021,-0.004,-0.0034,-0.005,-0.0082,0.0016,0.0065,-0.0153,0.0008,0.0007,0.0005,0,0.0064,0.0039,0.0045,0.0039,0.004,0.0059,0.0077,0.0118,0.0197,0.0266,0.0377,0.0331,0.0407,0.0325,0.0242,0.0177,0.0271,0.0188,0.0112,0.0111,0.0122,0.0116,-0.0009,0.0183,0.0183,0.0182,0.0182,0,0.0076,0.0087,0.0077,0.0087,0.0155,0.0132,0.025,0.0268,0.0389,0.0558,0.0486,0.0636,0.0488,0.051,0.0361,0.0304,0.0369,0.0143,0.015,0.012,0.0114,-0.0052,-0.0147,0.0187,0.0186,0.0185,0.0184,0,0.0142,0.0106,0.0147,0.0164,0.0178,0.0252,0.0387,0.0513,0.0586,0.0825,0.088,0.0931,0.0952,0.0785,0.0713,0.0519,0.033,0.0377,0.0349,0.0346,0.0015,-0.0076,-0.0102,-0.0182,0.032,0.0321,0.0321,0,0.0182,0.0204,0.0245,0.0315,0.0337,0.044,0.055,0.0616,0.0786,0.103,0.1189,0.1262,0.1344,0.1193,0.0868,0.0626,0.0407,0.0426,0.0252,0.0015,-0.0081,-0.0148,-0.022,0.0279,0.0279,0.0279,0.0279,0,0.0328,0.0343,0.0404,0.0522,0.0629,0.075,0.0909,0.1054,0.1209,0.1407,0.1682,0.1761,0.1593,0.1348,0.0963,0.0747,0.0279,0.0411,0.019,-0.01,-0.0197,-0.0275,0.0173,0.0277,0.0277,0.0277,0.0277,0.0278,0.0506,0.0592,0.0687,0.0792,0.0915,0.1082,0.121,0.1407,0.1665,0.1965,0.2026,0.2149,0.1723,0.1187,0.0888,0.0251,0.0275,0.0021,-0.0054,-0.0091,-0.0227,0.0208,0.0288,0.0288,0.0288,0.0288,0.0288,0,0.0764,0.0832,0.0962,0.1099,0.1251,0.1247,0.1483,0.163,0.1928,0.2166,0.2368,0.2183,0.1665,0.1086,0.0266,-0.0151,-0.0317,-0.0381,-0.0508,-0.055,-0.0138,-0.0211,-0.0264,-0.0264,-0.0263,-0.0263,-0.0263,-0.0263,0.0929,0.1092,0.1111,0.1374,0.1465,0.1672,0.179,0.1992,0.2164,0.242,0.2452,0.2453,0.1953,0.0569,-0.04,-0.0621,-0.089,-0.0921,-0.1043,-0.0829,-0.08,-0.0772,-0.0869,-0.1058,-0.1059,-0.1444,-0.1448,-0.1452]}],[{"header":{"parameterUnit":"m.s-1","parameterCategory":2,"la1":30.2991,"la2":30.254,"lo1":-89.0895,"lo2":-89.0444,"dy":0.0017,"dx":0.0017,"nx":28,"ny":28,"refTime":"2024-05-24T03:00:00:Z","depth":"2","parameterNumber":2,"parameterNumberName":"U-component_of_CURRENTS"},"data":[0,0,0,0,0,0,0,0,0,0,0,0,0,0,0,0,0,0,0,0,0,0,0,0,0,0,0,0,0,0,0,0,0,0,0,0,0,0,0,0,0,0,0,0,0,0,0,0,0,0,0,0,0,0,0,0,0,0,0.1562,0.1563,0,0.1599,0.1599,0.1599,0.1605,0.1605,0.1605,0.1605,0.1603,0.1603,0.1603,0,0,0,0,0,0,0,0,0,0,0,0,0,0.1487,0.1488,0.1562,0.1563,0.1564,0.1599,0.1599,0.1599,0.1605,0.1605,0.1605,0.1605,0.1602,0.1603,0.1603,0,0,0,0,0,0,0,0,0,0,0,0,0,0.1519,0.1488,0.1562,0.1572,0.1574,0.1599,0.1599,0.1599,0.1605,0.1605,0.1605,0.1605,0.1602,0.1603,0.1603,0.1607,0,0,0.1603,0.1603,0,0,0,0,0,0,0,0,0.1517,0.1522,0.157,0.1572,0.1573,0.1599,0.1572,0.1601,0.1605,0.1591,0.1605,0.1604,0.1599,0.16,0.1604,0.1607,0.1607,0.1603,0.1603,0.1603,0.1603,0,0,0,0,0,0,0,0.1515,0.152,0.1575,0.1571,0.1573,0.1571,0.1575,0.1577,0.1593,0.1592,0.1593,0.1601,0.1599,0.1604,0.1604,0.1607,0.1603,0.1603,0.1603,0.1603,0.1613,0.1614,0,0,0,0,0,0,0.1516,0.1518,0.1574,0.1576,0.1547,0.1573,0.1578,0.1589,0.1594,0.1596,0.1601,0.1601,0.1604,0.1604,0.1604,0.1616,0.1603,0.1603,0.1603,0.1613,0.1613,0.1614,0,0,0,0,0,0,0.1514,0.1521,0.1572,0.1549,0.1556,0.1575,0.1588,0.159,0.16,0.1602,0.1602,0.1609,0.1604,0.1604,0.161,0.1615,0.1603,0.1603,0.1613,0.1613,0.1614,0.1634,0,0,0,0,0,0,0.1512,0.152,0.1529,0.1549,0.1557,0.1594,0.1588,0.1591,0.1606,0.1606,0.1609,0.1608,0.1604,0.161,0.161,0.1615,0.1603,0.1613,0.1613,0.1613,0.1633,0.1635,0.1637,0,0,0,0,0,0.1509,0.1525,0.1529,0.1536,0.1569,0.1594,0.1598,0.1609,0.1606,0.1616,0.1615,0.1608,0.1613,0.1611,0.1611,0.1616,0.1612,0.1613,0.1613,0.1632,0.1635,0.1637,0,0,0,0,0,0,0.1497,0.1528,0.1532,0.1557,0.1576,0.1596,0.1609,0.1613,0.1621,0.162,0.1614,0.1614,0.1621,0.1616,0.1614,0.1619,0.161,0.1611,0.1625,0.1627,0.1629,0.1635,0.1603,0,0,0,0,0,0.1499,0.152,0.1545,0.1564,0.1576,0.1592,0.1603,0.1612,0.1622,0.1625,0.1625,0.1623,0.1623,0.1623,0.1624,0.1628,0.1687,0.163,0.1632,0.1634,0.1639,0.1749,0.1763,0.1615,0.1615,0.1615,0,0,0.1499,0.152,0.1531,0.1563,0.1579,0.1596,0.1598,0.1621,0.1628,0.1623,0.1631,0.1633,0.1627,0.1632,0.1634,0.1628,0.1709,0.1634,0.1636,0.164,0.1751,0.1766,0.1779,0.1616,0.1616,0.1616,0,0,0.1511,0.153,0.155,0.1567,0.1596,0.1605,0.1613,0.1635,0.1639,0.1651,0.1645,0.1649,0.1652,0.1647,0.1644,0.1656,0.1718,0.1657,0.167,0.1777,0.1791,0.1804,0.1915,0.1937,0.1655,0.1655,0.1655,0,0.1508,0.1537,0.1559,0.158,0.159,0.1609,0.1623,0.1634,0.1652,0.166,0.1656,0.1678,0.1657,0.1673,0.1664,0.166,0.1746,0.1662,0.1783,0.1797,0.181,0.1921,0.1945,0.1656,0.1656,0.1656,0.1656,0,0.1534,0.1553,0.1567,0.1596,0.1609,0.1628,0.1643,0.1657,0.1663,0.1677,0.1704,0.1697,0.1722,0.17,0.1678,0.1745,0.1787,0.1779,0.1784,0.1826,0.194,0.1965,0.1658,0.1657,0.1657,0.1657,0,0,0.1534,0.1576,0.1579,0.1591,0.1617,0.1632,0.1645,0.1668,0.1703,0.1711,0.177,0.173,0.1761,0.1759,0.1751,0.1802,0.1945,0.1827,0.1832,0.195,0.2219,0.2149,0.217,0.1985,0.1989,0.1992,0.2269,0,0.1544,0.1576,0.1593,0.1615,0.1629,0.1645,0.1664,0.1686,0.1719,0.1787,0.1792,0.1849,0.1778,0.182,0.186,0.1939,0.2011,0.1872,0.2149,0.2157,0.21,0.2196,0.1988,0.2209,0.2294,0.2299,0.2302,0,0.1558,0.1577,0.1597,0.1628,0.1638,0.1655,0.1701,0.1729,0.1811,0.1849,0.1912,0.1957,0.203,0.1981,0.2148,0.2082,0.215,0.2193,0.2206,0.2149,0.2133,0.2175,0.2252,0.2345,0.2342,0.2338,0.2336,0,0.1539,0.1577,0.1589,0.1599,0.164,0.1654,0.1685,0.1746,0.1807,0.193,0.2018,0.2106,0.2204,0.2295,0.2353,0.2303,0.2558,0.2512,0.2512,0.2509,0.2385,0.2363,0.2647,0.2647,0.2646,0.2645,0.2644,0,0.1537,0.1547,0.1588,0.1595,0.1636,0.1661,0.1736,0.178,0.1902,0.2013,0.2074,0.2198,0.2294,0.2431,0.2462,0.2577,0.2667,0.2546,0.2583,0.2384,0.236,0.25,0.248,0.2656,0.2653,0.2651,0.2649,0,0.1519,0.1534,0.1565,0.161,0.163,0.1668,0.178,0.1859,0.1956,0.2124,0.2187,0.2345,0.2532,0.2605,0.2784,0.2731,0.2831,0.2838,0.2591,0.2591,0.2694,0.2671,0.2916,0.2916,0.2916,0.2916,0.2916,0,0.1521,0.1534,0.1586,0.1627,0.1654,0.1724,0.179,0.1882,0.1978,0.2206,0.2299,0.2522,0.2631,0.2846,0.285,0.2939,0.2935,0.2755,0.2575,0.2714,0.2726,0.2703,0.268,0.2447,0.2443,0.244,0.2438,0,0.1551,0.1565,0.1603,0.1666,0.173,0.1797,0.1892,0.1957,0.2097,0.2218,0.241,0.2516,0.2729,0.272,0.2789,0.2781,0.2716,0.2692,0.2971,0.2374,0.2284,0.2291,0.2283,0.241,0.2413,0.2415,0.2416,0.2417,0.1601,0.1626,0.1672,0.1713,0.1792,0.183,0.1838,0.1949,0.2044,0.2149,0.2353,0.2424,0.2516,0.2521,0.2505,0.2493,0.2648,0.2501,0.2506,0.2517,0.2375,0.2286,0.2388,0.2391,0.2393,0.2395,0.2397,0,0.1622,0.1649,0.1718,0.174,0.1769,0.1813,0.1879,0.1854,0.1887,0.2053,0.2146,0.2041,0.2066,0.2187,0.214,0.2139,0.2064,0.205,0.1942,0.1974,0.2001,0.1826,0.1699,0.1696,0.1694,0.1692,0,0,0.1645,0.1656,0.1644,0.1662,0.1696,0.1675,0.1662,0.165,0.1721,0.1704,0.1744,0.1914,0.2101,0.1857,0.1855,0.1789,0.1849,0.1712,0.2279,0.2183,0.2207,0.2278,0.2048,0,0,0,0,0]},{"header":{"parameterUnit":"m.s-1","parameterCategory":2,"la1":30.2991,"la2":30.254,"lo1":-89.0895,"lo2":-89.0444,"dy":0.0017,"dx":0.0017,"nx":28,"ny":28,"refTime":"2024-05-24T03:00:00:Z","depth":"2","parameterNumber":3,"parameterNumberName":"V-component_of_CURRENTS"},"data":[0,0,0,0,0,0,0,0,0,0,0,0,0,0,0,0,0,0,0,0,0,0,0,0,0,0,0,0,0,0,0,0,0,0,0,0,0,0,0,0,0,0,0,0,0,0,0,0,0,0,0,0,0,0,0,0,0,0,-0.0149,-0.0149,0,-0.0214,-0.0215,-0.0216,-0.0239,-0.0238,-0.0238,-0.0238,-0.0315,-0.0317,-0.0319,0,0,0,0,0,0,0,0,0,0,0,0,0,-0.0081,-0.0081,-0.0149,-0.0149,-0.015,-0.0214,-0.0215,-0.0216,-0.0239,-0.0238,-0.0238,-0.0238,-0.0314,-0.0317,-0.0319,0,0,0,0,0,0,0,0,0,0,0,0,0,-0.0125,-0.0082,-0.0148,-0.0169,-0.0171,-0.0214,-0.0215,-0.0216,-0.0239,-0.0238,-0.0238,-0.0237,-0.0313,-0.0316,-0.032,-0.035,0,0,-0.033,-0.0332,0,0,0,0,0,0,0,0,-0.0122,-0.0127,-0.0165,-0.0167,-0.017,-0.0218,-0.0219,-0.0262,-0.0239,-0.0214,-0.0238,-0.0237,-0.0283,-0.0289,-0.0303,-0.0354,-0.0357,-0.0331,-0.0333,-0.0334,-0.0335,0,0,0,0,0,0,0,-0.0119,-0.0125,-0.0175,-0.0166,-0.0169,-0.0188,-0.0193,-0.0228,-0.0251,-0.0216,-0.0217,-0.0224,-0.0285,-0.03,-0.0305,-0.0358,-0.0331,-0.0334,-0.0336,-0.0337,-0.0438,-0.0438,0,0,0,0,0,0,-0.0109,-0.0122,-0.0173,-0.0177,-0.0144,-0.0189,-0.0195,-0.0203,-0.025,-0.0257,-0.0225,-0.0225,-0.0294,-0.0301,-0.0308,-0.0346,-0.0334,-0.0338,-0.034,-0.0437,-0.0438,-0.0439,0,0,0,0,0,0,-0.0107,-0.0113,-0.017,-0.015,-0.0159,-0.019,-0.0199,-0.0205,-0.0218,-0.0257,-0.0263,-0.0232,-0.0294,-0.0303,-0.0343,-0.0349,-0.0339,-0.0342,-0.0437,-0.0438,-0.0438,-0.0424,0,0,0,0,0,0,-0.0105,-0.0112,-0.0115,-0.015,-0.016,-0.0197,-0.02,-0.0206,-0.0223,-0.0224,-0.0266,-0.0272,-0.0294,-0.0337,-0.0346,-0.0354,-0.0345,-0.0436,-0.0437,-0.0438,-0.0424,-0.0424,-0.0425,0,0,0,0,0,-0.0102,-0.0112,-0.0115,-0.0121,-0.0163,-0.0197,-0.0204,-0.0225,-0.0224,-0.0234,-0.0262,-0.0271,-0.035,-0.0341,-0.0351,-0.036,-0.0435,-0.0437,-0.0438,-0.0423,-0.0424,-0.0425,0,0,0,0,0,0,-0.0085,-0.0116,-0.012,-0.0138,-0.0164,-0.0201,-0.0214,-0.0224,-0.0255,-0.0256,-0.0285,-0.0295,-0.0331,-0.035,-0.0339,-0.0392,-0.0392,-0.0395,-0.0377,-0.0378,-0.0379,-0.0347,-0.0348,0,0,0,0,0,-0.0082,-0.0097,-0.0127,-0.0141,-0.0153,-0.0181,-0.0197,-0.0211,-0.0242,-0.0254,-0.0282,-0.0313,-0.0345,-0.0364,-0.0396,-0.043,-0.042,-0.0441,-0.0441,-0.0441,-0.0423,-0.0409,-0.0406,-0.0443,-0.0443,-0.0443,0,0,-0.0079,-0.0098,-0.0106,-0.0139,-0.016,-0.0181,-0.019,-0.0215,-0.0231,-0.0259,-0.0291,-0.0319,-0.0355,-0.0391,-0.0409,-0.0407,-0.043,-0.0443,-0.0443,-0.0424,-0.041,-0.0406,-0.0402,-0.0444,-0.0444,-0.0444,0,0,-0.0086,-0.0098,-0.0113,-0.0132,-0.0162,-0.0182,-0.0187,-0.0223,-0.0236,-0.0271,-0.0293,-0.032,-0.0375,-0.0397,-0.0415,-0.0438,-0.0433,-0.0453,-0.0431,-0.0418,-0.0414,-0.0411,-0.0405,-0.0401,-0.0452,-0.0452,-0.0452,0,-0.008,-0.01,-0.0123,-0.0141,-0.0152,-0.018,-0.0193,-0.0218,-0.0262,-0.0261,-0.0279,-0.033,-0.0373,-0.0394,-0.0411,-0.0437,-0.0427,-0.0425,-0.0416,-0.0412,-0.0409,-0.0404,-0.0399,-0.0452,-0.0452,-0.0452,-0.0452,0,-0.0098,-0.0111,-0.0122,-0.015,-0.0167,-0.0185,-0.0214,-0.0228,-0.0243,-0.0257,-0.0276,-0.0326,-0.0339,-0.0374,-0.0407,-0.0407,-0.0408,-0.0417,-0.0408,-0.0403,-0.0399,-0.0395,-0.0451,-0.0451,-0.0451,-0.0452,0,0,-0.0091,-0.0126,-0.0128,-0.0125,-0.0168,-0.0174,-0.0201,-0.0215,-0.0189,-0.0245,-0.0208,-0.0299,-0.0294,-0.0314,-0.035,-0.0362,-0.0355,-0.038,-0.038,-0.0362,-0.0324,-0.0397,-0.0399,-0.0356,-0.0355,-0.0354,-0.0335,0,-0.0095,-0.0112,-0.0136,-0.0142,-0.0146,-0.0168,-0.017,-0.0183,-0.0187,-0.0159,-0.0202,-0.0186,-0.0279,-0.0259,-0.0295,-0.0329,-0.034,-0.0359,-0.0341,-0.034,-0.0395,-0.0396,-0.037,-0.0357,-0.0331,-0.033,-0.033,0,-0.0102,-0.0107,-0.0111,-0.0101,-0.0101,-0.0103,-0.0073,-0.0076,-0.0058,-0.005,-0.0052,-0.0061,-0.0094,-0.0147,-0.0219,-0.0223,-0.0268,-0.0307,-0.0307,-0.037,-0.0405,-0.0357,-0.035,-0.0322,-0.0323,-0.0323,-0.0324,0,-0.0064,-0.0084,-0.0074,-0.0078,-0.0079,-0.0062,-0.005,-0.0032,0.0013,0.0052,0.0105,0.0055,0.0073,-0.0007,-0.0138,-0.015,-0.0203,-0.0219,-0.0328,-0.0334,-0.0306,-0.0312,-0.024,-0.024,-0.024,-0.024,-0.024,0,-0.0049,-0.0036,-0.0044,-0.0033,0.0025,0.0003,0.009,0.0094,0.0157,0.0233,0.0187,0.0238,0.0114,0.0054,-0.0072,-0.0209,-0.0155,-0.0316,-0.0331,-0.0306,-0.0311,-0.0274,-0.0278,-0.0239,-0.0239,-0.0239,-0.0239,0,0.0008,-0.0016,0.0019,0.0034,0.0048,0.0107,0.0196,0.0268,0.0297,0.0403,0.0431,0.0403,0.0318,0.016,0.0041,-0.0111,-0.0234,-0.0291,-0.0269,-0.0284,-0.0379,-0.0383,-0.0373,-0.0375,-0.0377,-0.0379,-0.038,0,0.0037,0.0057,0.0098,0.0146,0.0164,0.0247,0.0315,0.0349,0.0416,0.0492,0.0541,0.0515,0.0464,0.023,0.0004,-0.0214,-0.0243,-0.0346,-0.0378,-0.0376,-0.0391,-0.0392,-0.0393,-0.0329,-0.033,-0.033,-0.0331,0,0.0113,0.0131,0.0169,0.0242,0.0313,0.0417,0.0493,0.0548,0.059,0.0632,0.0632,0.0607,0.0444,0.0229,-0.0047,-0.02,-0.0319,-0.0369,-0.0337,-0.0325,-0.0341,-0.0354,-0.0355,-0.0337,-0.0337,-0.0336,-0.0336,-0.0336,0.0186,0.0236,0.0258,0.0328,0.0407,0.049,0.0553,0.0626,0.0671,0.0717,0.069,0.0686,0.0481,0.0158,-0.0108,-0.0352,-0.0346,-0.0443,-0.0438,-0.0432,-0.0456,-0.0477,-0.0503,-0.0503,-0.0504,-0.0504,-0.0504,0,0.0193,0.0241,0.0333,0.0364,0.0407,0.0479,0.0589,0.065,0.0651,0.079,0.0771,0.0599,0.0402,0.0207,-0.0155,-0.0428,-0.0422,-0.0502,-0.0425,-0.0419,-0.0413,-0.0433,-0.0476,-0.0476,-0.0477,-0.0477,0,0,0.0198,0.022,0.0242,0.0276,0.0339,0.0417,0.0475,0.06,0.0723,0.0786,0.0846,0.0856,0.0577,0.0314,-0.004,-0.0232,-0.0262,-0.028,-0.0281,-0.0144,-0.0134,-0.0367,-0.0391,0,0,0,0,0]}],[{"header":{"parameterUnit":"m.s-1","parameterCategory":2,"la1":30.2991,"la2":30.254,"lo1":-89.0895,"lo2":-89.0444,"dy":0.0017,"dx":0.0017,"nx":28,"ny":28,"refTime":"2024-05-24T03:00:00:Z","depth":"4","parameterNumber":2,"parameterNumberName":"U-component_of_CURRENTS"},"data":[0,0,0,0,0,0,0,0,0,0,0,0,0,0,0,0,0,0,0,0,0,0,0,0,0,0,0,0,0,0,0,0,0,0,0,0,0,0,0,0,0,0,0,0,0,0,0,0,0,0,0,0,0,0,0,0,0,0,0.0716,0.0717,0,0.077,0.077,0.0771,0.0831,0.0832,0.0833,0.0834,0.091,0.0911,0.0912,0,0,0,0,0,0,0,0,0,0,0,0,0,0.0676,0.0676,0.0716,0.0717,0.0718,0.077,0.077,0.0771,0.0831,0.0832,0.0833,0.0834,0.0909,0.0911,0.0912,0,0,0,0,0,0,0,0,0,0,0,0,0,0.0707,0.0676,0.0716,0.0754,0.0758,0.0769,0.077,0.0771,0.083,0.0832,0.0833,0.0835,0.0909,0.0911,0.0912,0.0895,0,0,0.0918,0.0919,0,0,0,0,0,0,0,0,0.0705,0.0709,0.0748,0.0751,0.0756,0.0795,0.0784,0.0814,0.083,0.0802,0.0834,0.0835,0.0873,0.0878,0.0884,0.0899,0.0902,0.0918,0.0919,0.092,0.092,0,0,0,0,0,0,0,0.0703,0.0707,0.0737,0.0748,0.0753,0.0772,0.0778,0.079,0.0829,0.0805,0.081,0.0816,0.0876,0.0882,0.0886,0.0903,0.0918,0.0919,0.0921,0.0921,0.1009,0.1011,0,0,0,0,0,0,0.0695,0.0704,0.0735,0.0739,0.0734,0.0772,0.0778,0.0781,0.0829,0.0837,0.0815,0.0818,0.0878,0.0884,0.0889,0.0965,0.092,0.0921,0.0922,0.1008,0.101,0.1011,0,0,0,0,0,0,0.0694,0.0697,0.0733,0.0723,0.0729,0.0771,0.0774,0.0781,0.0813,0.0836,0.0845,0.0841,0.0879,0.0887,0.091,0.0965,0.0922,0.0924,0.1007,0.1009,0.101,0.1057,0,0,0,0,0,0,0.0693,0.0697,0.0704,0.0723,0.073,0.0754,0.0773,0.0781,0.0813,0.0819,0.0861,0.0868,0.0881,0.0908,0.0912,0.0967,0.0925,0.1005,0.1008,0.101,0.1054,0.1061,0.1066,0,0,0,0,0,0.0691,0.0692,0.0704,0.0709,0.0736,0.0754,0.076,0.0793,0.0813,0.0827,0.0849,0.0868,0.0928,0.0909,0.0914,0.0971,0.1004,0.1007,0.101,0.1051,0.1059,0.1066,0,0,0,0,0,0,0.0677,0.0699,0.0713,0.0721,0.0743,0.0765,0.0781,0.0802,0.083,0.0844,0.0865,0.0873,0.0922,0.0928,0.0907,0.1003,0.0977,0.0981,0.1007,0.1015,0.1021,0.1064,0.0927,0,0,0,0,0,0.0676,0.0682,0.0708,0.0713,0.0729,0.0758,0.0773,0.0798,0.082,0.0836,0.0862,0.0896,0.0933,0.0957,0.098,0.1018,0.1023,0.1063,0.107,0.1075,0.1113,0.1114,0.1124,0.1021,0.1021,0.1021,0,0,0.0669,0.0682,0.0686,0.0711,0.0732,0.0759,0.0771,0.08,0.0835,0.0838,0.0888,0.0911,0.0944,0.0994,0.102,0.1011,0.1109,0.1078,0.1083,0.112,0.1118,0.1129,0.1137,0.1023,0.1022,0.1022,0,0,0.0659,0.0675,0.0685,0.0707,0.0744,0.0766,0.0779,0.0816,0.085,0.0891,0.0911,0.0958,0.1006,0.1044,0.107,0.112,0.1133,0.1141,0.1217,0.1216,0.1225,0.1233,0.1257,0.1267,0.1151,0.1152,0.1152,0,0.0655,0.067,0.069,0.0712,0.0735,0.0773,0.0799,0.0836,0.0877,0.0904,0.0918,0.1007,0.1038,0.1107,0.1155,0.1138,0.1148,0.1184,0.1224,0.1232,0.1239,0.1262,0.1272,0.1154,0.1154,0.1154,0.1153,0,0.0658,0.068,0.0688,0.073,0.0757,0.0782,0.0836,0.0872,0.092,0.0959,0.1035,0.1074,0.1138,0.1162,0.1195,0.1275,0.1269,0.1221,0.1204,0.1252,0.1274,0.1283,0.1158,0.1157,0.1156,0.1156,0,0,0.0622,0.068,0.0685,0.0715,0.0772,0.0795,0.0853,0.0915,0.0967,0.1026,0.1095,0.119,0.123,0.1265,0.1297,0.1333,0.1408,0.1333,0.1332,0.1358,0.1438,0.1381,0.1385,0.1364,0.1366,0.1367,0.1435,0,0.0622,0.0664,0.0694,0.0744,0.0776,0.0827,0.0886,0.095,0.1008,0.1082,0.115,0.1236,0.1262,0.1324,0.136,0.1401,0.1437,0.1397,0.1391,0.1392,0.1333,0.1395,0.1373,0.1442,0.1444,0.1445,0.1446,0,0.0617,0.0649,0.0698,0.0773,0.0794,0.0838,0.093,0.0989,0.1091,0.1147,0.1227,0.1286,0.1402,0.1395,0.1485,0.1462,0.1483,0.1494,0.1494,0.1439,0.1352,0.1383,0.1463,0.1462,0.1461,0.146,0.1459,0,0.0586,0.065,0.0692,0.0716,0.081,0.0852,0.0915,0.1011,0.1082,0.1203,0.1267,0.1364,0.1445,0.1479,0.1547,0.153,0.1612,0.1557,0.1514,0.1509,0.1517,0.1508,0.1603,0.1603,0.1603,0.1603,0.1602,0,0.0569,0.0602,0.069,0.0714,0.0792,0.086,0.0952,0.1024,0.1142,0.1225,0.1318,0.1391,0.1476,0.1532,0.1564,0.1586,0.1613,0.1565,0.153,0.1536,0.1528,0.1524,0.1514,0.1605,0.1605,0.1604,0.1604,0,0.0527,0.0582,0.0636,0.0738,0.0782,0.0842,0.0983,0.1042,0.1163,0.1269,0.1327,0.1447,0.1534,0.1582,0.1644,0.1604,0.1623,0.1608,0.1653,0.1612,0.1523,0.1514,0.1585,0.1584,0.1583,0.1582,0.1581,0,0.051,0.0531,0.0646,0.0696,0.0747,0.0849,0.092,0.105,0.1103,0.1286,0.1321,0.1464,0.153,0.1563,0.1618,0.1655,0.1629,0.1619,0.1566,0.1566,0.1525,0.1518,0.1512,0.1579,0.1579,0.1579,0.1578,0,0.0467,0.0511,0.0565,0.0665,0.0741,0.082,0.0919,0.0959,0.1101,0.122,0.1314,0.1394,0.1476,0.1533,0.1569,0.1582,0.1619,0.1607,0.1609,0.1559,0.156,0.1518,0.1513,0.1574,0.1575,0.1575,0.1576,0,0.0439,0.0464,0.0539,0.0624,0.0708,0.0757,0.0825,0.0902,0.0987,0.1172,0.12,0.1344,0.1455,0.1497,0.1529,0.155,0.1536,0.1473,0.1481,0.1486,0.1425,0.141,0.138,0,0,0,0,0,0.0414,0.0433,0.0494,0.0577,0.0651,0.0701,0.0805,0.0867,0.0991,0.1034,0.1124,0.1208,0.1314,0.1382,0.139,0.1489,0.1527,0.1491,0.1453,0.1553,0.1558,0.1496,0,0,0,0,0,0,0.0392,0.0443,0.0466,0.0508,0.0553,0.0623,0.0679,0.0773,0.08,0.0944,0.1003,0.1136,0.1242,0.1299,0.1365,0.1389,0.1342,0.1588,0.1585,0.1551,0.1555,0.1558,0.1497,0,0,0,0,0]},{"header":{"parameterUnit":"m.s-1","parameterCategory":2,"la1":30.2991,"la2":30.254,"lo1":-89.0895,"lo2":-89.0444,"dy":0.0017,"dx":0.0017,"nx":28,"ny":28,"refTime":"2024-05-24T03:00:00:Z","depth":"4","parameterNumber":3,"parameterNumberName":"V-component_of_CURRENTS"},"data":[0,0,0,0,0,0,0,0,0,0,0,0,0,0,0,0,0,0,0,0,0,0,0,0,0,0,0,0,0,0,0,0,0,0,0,0,0,0,0,0,0,0,0,0,0,0,0,0,0,0,0,0,0,0,0,0,0,0,0.0076,0.0076,0,0.0082,0.0082,0.0082,0.0027,0.0026,0.0025,0.0023,-0.0011,-0.0011,-0.001,0,0,0,0,0,0,0,0,0,0,0,0,0,0.0002,0.0004,0.0076,0.0076,0.0076,0.0082,0.0082,0.0082,0.0028,0.0026,0.0024,0.0022,-0.0011,-0.0011,-0.001,0,0,0,0,0,0,0,0,0,0,0,0,0,0.0023,0.0004,0.0076,0.005,0.0048,0.0082,0.0082,0.0082,0.0028,0.0026,0.0024,0.0022,-0.0012,-0.0011,-0.001,0.0038,0,0,-0.0008,-0.0008,0,0,0,0,0,0,0,0,0.0022,0.0026,0.0054,0.0052,0.005,0.0052,0.0044,0.0066,0.0029,0.0035,0.0023,0.0021,0.0008,0.0007,0.0013,0.0036,0.0035,-0.0008,-0.0008,-0.0007,-0.0007,0,0,0,0,0,0,0,0.0021,0.0025,0.0077,0.0054,0.0052,0.0034,0.0034,0.0048,0.0032,0.0034,0.003,0.0033,0.0007,0.0012,0.0012,0.0034,-0.0008,-0.0008,-0.0007,-0.0007,0.0036,0.0037,0,0,0,0,0,0,0.0025,0.0024,0.0077,0.0078,0.0031,0.0037,0.0037,0.0053,0.0033,0.0028,0.0035,0.003,0.0012,0.0011,0.001,0.0031,-0.0007,-0.0007,-0.0006,0.0035,0.0036,0.0037,0,0,0,0,0,0,0.0024,0.003,0.0077,0.005,0.0055,0.0041,0.0058,0.0054,0.005,0.0034,0.0028,0.0033,0.0011,0.0009,0.003,0.003,-0.0007,-0.0006,0.0035,0.0036,0.0037,0.0094,0,0,0,0,0,0,0.0022,0.003,0.0043,0.0052,0.0057,0.0103,0.0061,0.0056,0.0056,0.005,0.0031,0.0026,0.0009,0.0029,0.003,0.003,-0.0005,0.0034,0.0035,0.0036,0.0091,0.0097,0.0102,0,0,0,0,0,0.002,0.0061,0.0044,0.005,0.0076,0.0105,0.0107,0.0087,0.0058,0.0071,0.0059,0.0026,0.0037,0.0032,0.0033,0.0032,0.0033,0.0035,0.0036,0.0089,0.0096,0.0102,0,0,0,0,0,0,0.0044,0.006,0.0041,0.0085,0.0091,0.0096,0.0111,0.0092,0.0095,0.0084,0.0057,0.0053,0.0063,0.005,0.0044,0.0047,0.0022,0.0024,0.0061,0.0068,0.0073,0.0042,-0.0005,0,0,0,0,0,0.0054,0.0083,0.0087,0.0121,0.0126,0.0114,0.0122,0.0108,0.0111,0.0108,0.0097,0.0081,0.0075,0.0074,0.0071,0.0093,0.0035,0.0086,0.0091,0.0096,0.0071,0.0001,-0.0003,0.0043,0.0043,0.0043,0,0,0.0076,0.0086,0.0103,0.0127,0.0127,0.015,0.0114,0.0133,0.0144,0.0108,0.0125,0.0107,0.0086,0.01,0.0101,0.0087,0.0057,0.0098,0.0102,0.0074,0.0002,-0.0003,-0.0007,0.0044,0.0044,0.0043,0,0,0.0132,0.0138,0.0172,0.018,0.0185,0.0182,0.0187,0.0191,0.0182,0.0204,0.0168,0.0154,0.0161,0.0138,0.0128,0.0165,0.0088,0.0158,0.0161,0.0096,0.009,0.0085,0.0019,0.0007,0.016,0.0161,0.0161,0,0.015,0.0189,0.0188,0.0216,0.0222,0.0198,0.0224,0.0229,0.0236,0.0223,0.0214,0.018,0.0174,0.0156,0.0163,0.0174,0.0116,0.0142,0.01,0.0093,0.0087,0.002,0.0006,0.0163,0.0163,0.0163,0.0163,0,0.022,0.0245,0.027,0.0288,0.0301,0.0325,0.032,0.0324,0.0303,0.0285,0.0261,0.0246,0.0206,0.0212,0.02,0.0151,0.0119,0.0115,0.008,0.0085,0.0015,-0.0,0.0168,0.0167,0.0166,0.0165,0,0,0.0269,0.031,0.0313,0.0314,0.0334,0.0345,0.0369,0.0365,0.0339,0.0337,0.0293,0.0292,0.0238,0.0221,0.0195,0.0145,0.0069,0.0107,0.0102,0.0033,-0.0096,-0.0052,-0.0065,0.0048,0.0045,0.0043,-0.0121,0,0.0312,0.0365,0.0379,0.0414,0.043,0.0416,0.0428,0.0415,0.0387,0.0342,0.0298,0.0251,0.0256,0.0212,0.0169,0.008,0.0027,0.0112,-0.0086,-0.0092,-0.006,-0.0082,0.0035,-0.0133,-0.0137,-0.014,-0.0142,0,0.036,0.0384,0.043,0.0436,0.044,0.0458,0.0428,0.0435,0.0377,0.0344,0.0285,0.0227,0.0152,0.0148,0.0004,0.0049,-0.0026,-0.0084,-0.0091,-0.0091,-0.0078,-0.0144,-0.0171,-0.0168,-0.0166,-0.0164,-0.0163,0,0.0359,0.041,0.0437,0.0447,0.0462,0.0465,0.0463,0.0427,0.0404,0.0319,0.027,0.0177,0.0107,0.0004,-0.0092,-0.0074,-0.0263,-0.0249,-0.0277,-0.0275,-0.0293,-0.0285,-0.0364,-0.0364,-0.0364,-0.0363,-0.0363,0,0.0383,0.0398,0.0435,0.0444,0.0443,0.0459,0.0434,0.0413,0.0363,0.0325,0.0255,0.0196,0.0061,-0.0048,-0.0133,-0.0251,-0.0296,-0.0301,-0.0321,-0.026,-0.0247,-0.0303,-0.0294,-0.0369,-0.0368,-0.0367,-0.0366,0,0.0359,0.0397,0.0411,0.0435,0.044,0.0428,0.042,0.0392,0.0361,0.0303,0.0268,0.0167,0.0035,-0.0083,-0.0265,-0.0297,-0.0419,-0.0445,-0.0384,-0.0394,-0.0384,-0.037,-0.0522,-0.0522,-0.0522,-0.0522,-0.0522,0,0.0339,0.0353,0.0383,0.0376,0.0384,0.0381,0.0372,0.0373,0.036,0.0301,0.0272,0.0135,0.0065,-0.0152,-0.0273,-0.0451,-0.0445,-0.0516,-0.0441,-0.04,-0.0404,-0.039,-0.0376,-0.0522,-0.0522,-0.0522,-0.0522,0,0.0272,0.0291,0.0295,0.0307,0.0308,0.0326,0.0336,0.0336,0.0343,0.0308,0.0264,0.0159,0.0017,-0.0137,-0.0274,-0.0388,-0.0479,-0.0516,-0.0516,-0.0446,-0.0401,-0.0403,-0.0389,-0.0522,-0.0522,-0.0522,-0.0522,0,0.0189,0.018,0.0201,0.0224,0.0234,0.029,0.0301,0.0318,0.0322,0.0305,0.0284,0.0154,0.0066,-0.0106,-0.0231,-0.0344,-0.036,-0.0372,-0.038,-0.0382,-0.0268,-0.0186,-0.0279,0,0,0,0,0,0.0108,0.0121,0.0117,0.0169,0.0198,0.0245,0.0282,0.0307,0.0339,0.0319,0.0317,0.0202,0.0029,-0.0061,-0.0167,-0.0243,-0.0396,-0.0371,-0.0418,-0.0521,-0.0521,-0.0404,0,0,0,0,0,0,0.0039,0.0036,0.0097,0.0147,0.0193,0.0249,0.0298,0.0324,0.0331,0.0333,0.0237,0.0198,0.0014,0.0094,-0.0162,-0.02,-0.0237,-0.046,-0.0461,-0.0521,-0.0521,-0.0521,-0.0401,0,0,0,0,0]}]]